Location: Killam
(52.7910°N, 111.8608°W)
Time: 15:49:49
(UTC+00:00)

Injun/Solrad 3 - Pass Details

Date: 20 February 2026
Orbit: 872 x 984 km, 66.8° (Epoch: 7 March)

Event Time Altitude Azimuth Distance (km) Brightness Sun altitude
Rises 04:51:20 0° 309° (NW) 3,590 12.0 -36.1°
Reaches altitude 10° 04:55:38 10° 281° (W) 2,667 10.9 -36.6°
Maximum altitude 04:57:53 12° 259° (W) 2,525 10.5 -36.9°
Drops below altitude 10° 05:00:08 10° 238° (WSW) 2,688 10.5 -37.2°
Enters shadow 05:01:06 - 230° (SW) 2,841 10.5 -37.3°
